Banff, Alberta

2:25 PM MDT on October 21, 2017 (GMT -0600)
Banff

Weather History for CWZG - April, 2013

Change the Weather History Date:

Saturday, April 27, 2013

  Actual Average Record
Temperature  
Mean Temperature 44 °F -  
Max Temperature 49 °F - - ()
Min Temperature 40 °F - - ()
Degree Days  
Heating Degree Days 20    
Moisture  
Dew Point 27 °F    
Average Humidity 48    
Maximum Humidity 78    
Minimum Humidity 36    
Precipitation  
Precipitation 0.00 in - - ()
Sea Level Pressure  
Sea Level Pressure 29.80 in    
Wind  
Wind Speed 8 mph ()    
Max Wind Speed 13 mph    
Max Gust Speed 29 mph    
T = Trace of Precipitation, MM = Missing Value Source: Averaged Metar Reports

Daily Weather History Graph

Daily Weather History Graph

Search for Another Location

Airport or City:

Trip Planner

Search our weather history database for the weather conditions in past years. The results will help you decide how hot, cold, wet, or windy it might be!

Date:

Astronomy

Apr. 27, 2013 Rise Set
Actual Time 6:21 AM MDT 8:58 PM MDT
Civil Twilight 5:44 AM MDT 9:36 PM MDT
Nautical Twilight 4:57 AM MDT 10:23 PM MDT
Astronomical Twilight 4:00 AM MDT 11:21 PM MDT
Moon 11:45 PM MDT (4/27) 7:33 AM MDT (4/27)
Length of Visible Light 15h 51m
Length of Day
14h 36m
Waning Gibbous, 95% of the Moon is Illuminated
Apr 27
Waning Gibbous
May 2
Last Quarter
May 9
New
May 17
First Quarter
May 24
Full

Hourly Weather History & Observations

Time (MDT) Temp. Windchill Dew Point Humidity Pressure Visibility Wind Dir Wind Speed Gust Speed Precip Events Conditions
12:00 AM 49.1 °F - 25.2 °F 39% 29.88 in - WSW 10.4 mph 17.3 mph N/A   Unknown
1:00 AM 49.5 °F - 24.1 °F 37% 29.87 in - WSW 10.4 mph 21.9 mph N/A   Unknown
2:00 AM 48.7 °F - 24.6 °F 39% 29.86 in - WSW 9.2 mph 20.7 mph N/A   Unknown
3:00 AM 48.6 °F - 23.0 °F 37% 29.86 in - WSW 10.4 mph 23.0 mph N/A   Unknown
4:00 AM 47.7 °F - 23.2 °F 38% 29.85 in - WSW 11.5 mph 21.9 mph N/A   Unknown
5:00 AM 47.1 °F - 23.2 °F 39% 29.83 in - WSW 10.4 mph 17.3 mph N/A   Unknown
6:00 AM 46.0 °F 41.4 °F 23.5 °F 41% 29.84 in - WSW 9.2 mph 17.3 mph N/A   Unknown
7:00 AM 45.7 °F 40.2 °F 23.2 °F 41% 29.85 in - WSW 11.5 mph 28.8 mph N/A   Unknown
8:00 AM 47.3 °F - 23.2 °F 39% 29.84 in - WSW 11.5 mph 24.2 mph N/A   Unknown
9:00 AM 48.4 °F - 22.6 °F 36% 29.84 in - WSW 12.7 mph 20.7 mph N/A   Unknown
10:00 AM 48.2 °F - 24.6 °F 40% 29.83 in - West 11.5 mph 24.2 mph N/A   Unknown
11:00 AM 47.1 °F - 25.3 °F 43% 29.80 in - WSW 10.4 mph 19.6 mph N/A   Unknown
12:00 PM 43.3 °F 37.7 °F 30.6 °F 61% 29.80 in - South 10.4 mph - N/A   Unknown
1:00 PM 40.1 °F - 33.6 °F 78% 29.79 in - South 1.2 mph - N/A   Unknown
2:00 PM 41.5 °F - 35.1 °F 78% 29.76 in - SSW 1.2 mph - N/A   Unknown
3:00 PM 44.1 °F 40.8 °F 33.6 °F 67% 29.73 in - WSW 5.8 mph - N/A   Unknown
4:00 PM 46.0 °F 41.9 °F 30.4 °F 54% 29.71 in - West 8.1 mph - N/A   Unknown
5:00 PM 46.4 °F 42.4 °F 30.7 °F 54% 29.72 in - WSW 8.1 mph 19.6 mph N/A   Unknown
6:00 PM 46.9 °F - 28.8 °F 49% 29.73 in - West 5.8 mph - N/A   Unknown
7:00 PM 47.3 °F - 26.8 °F 45% 29.72 in - West 8.1 mph - N/A   Unknown
8:00 PM 46.8 °F - 26.6 °F 45% 29.73 in - West 6.9 mph - N/A   Unknown
9:00 PM 45.1 °F 40.8 °F 27.7 °F 50% 29.76 in - West 8.1 mph - N/A   Unknown
10:00 PM 45.1 °F 40.8 °F 26.1 °F 47% 29.79 in - WSW 8.1 mph - N/A   Unknown